Regional Weather Roundup
Issued by NWS Nashville, TN

Home | Current Version | Previous Version | Text Only | Print | Product List | Glossary On
Versions: 1 2 3 4 5 6 7 8 9 10 11 12 13 14 15 16 17 18 19 20 21 22 23 24 25 26 27 28 29 30 31 32 33 34 35 36 37 38 39 40 41 42 43 44 45 46 47 48 49 50
000
ASUS44 KOHX 020315
RWROHX
MIDDLE TENNESSEE HOURLY WEATHER ROUNDUP
NATIONAL WEATHER SERVICE NASHVILLE TN
1000 PM CDT FRI AUG 01 2014

NOTE: "FAIR" INDICATES FEW OR NO CLOUDS BELOW 12,000 FEET WITH
NO SIGNIFICANT WEATHER AND/OR OBSTRUCTIONS TO VISIBILITY.

* THESE REPORTS ARE NOT UNDER NWS QUALITY CONTROL AND MAY NOT
  REPORT WEATHER SUCH AS PRECIPITATION AND FOG.


TNZ005>011-023>034-057-059-062>066-078-080-020400
...NORTHERN MIDDLE TENNESSEE...

CITY           SKY/WX    TMP DP  RH WIND       PRES   REMARKS
CLARKSVILLE    PTCLDY    76  58  53 CALM      30.04R
CROSSVILLE     CLOUDY    70  65  84 CALM      30.11S
GALLATIN         N/A     77  63  61 E3        30.06R
DICKSON        PTCLDY    72  66  83 CALM      30.06R
LEBANON        MOCLDY    75  65  71 CALM      30.03S
LIVINGSTON       N/A     70  61  73 CALM      30.08S
NASHVILLE      MOCLDY    78  64  61 CALM      30.05R
WEST NASHVILLE MOCLDY    75  66  73 CALM      30.04R
PORTLAND       MOCLDY    68  63  83 CALM      30.05S
SMYRNA         MOCLDY    73  70  91 CALM      30.05R
SPARTA         MOCLDY    72  70  94 CALM      30.06F
$$
TNZ056-058-060-061-075>077-079-093>097-020400
...SOUTHERN MIDDLE TENNESSEE...

CITY           SKY/WX    TMP DP  RH WIND       PRES   REMARKS
COLUMBIA       CLOUDY    75  70  83 CALM      30.04R
FAYETTEVILLE   PTCLDY    72  64  78 E9G22     30.06S
LEWISBURG      CLOUDY    73  68  84 CALM      30.04R
MCMINNVILLE    MOCLDY    72  72 100 CALM      30.07S
MURFREESBORO   MOCLDY    76  67  73 CALM      30.04R
SHELBYVILLE    CLOUDY    73  70  88 SE5       30.06S
TULLAHOMA      CLOUDY    73  64  73 CALM      30.08R
WINCHESTER     MOCLDY    70  66  88 CALM      30.07S
$$


...KEY TO REMARKS...
VSB - VISIBILITY IN MILES
WCI - WIND CHILL INDEX
HX  - HEAT INDEX



USA.gov is the U.S. government's official web portal to all federal, state and local government web resources and services.